TimeCST,TemperatureF,Dew PointF,Humidity,Sea Level PressureIn,VisibilityMPH,Wind Direction,Wind SpeedMPH,Gust SpeedMPH,PrecipitationIn,Events,Conditions,WindDirDegrees,DateUTC
12:13 AM,15.8,8.6,73,30.15,10.0,SSE,12.7,-,N/A,Snow,Light Snow,160,2013-01-18 06:13:00
12:33 AM,15.8,10.4,79,30.13,10.0,SSE,10.4,-,N/A,Snow,Light Snow,160,2013-01-18 06:33:00
12:52 AM,17.6,8.6,68,30.10,10.0,SSE,12.7,17.3,N/A,,Overcast,160,2013-01-18 06:52:00
1:13 AM,17.6,10.4,73,30.08,10.0,SSE,11.5,-,N/A,,Scattered Clouds,160,2013-01-18 07:13:00
1:33 AM,17.6,10.4,73,30.06,10.0,SSE,13.8,23.0,N/A,,Overcast,160,2013-01-18 07:33:00
1:52 AM,17.6,10.4,73,30.04,10.0,SSE,17.3,21.9,N/A,,Scattered Clouds,160,2013-01-18 07:52:00
2:13 AM,19.4,12.2,74,30.05,10.0,SSE,13.8,17.3,N/A,,Mostly Cloudy,160,2013-01-18 08:13:00
2:32 AM,19.4,15.8,86,30.03,10.0,SSE,13.8,21.9,N/A,,Mostly Cloudy,160,2013-01-18 08:32:00
2:53 AM,19.4,15.8,86,30.02,10.0,SSE,13.8,23.0,N/A,,Overcast,160,2013-01-18 08:53:00
3:13 AM,19.4,17.6,93,30.01,10.0,SSE,15.0,-,N/A,,Overcast,160,2013-01-18 09:13:00
3:32 AM,21.2,17.6,86,29.99,10.0,SSE,15.0,23.0,N/A,,Overcast,160,2013-01-18 09:32:00
3:53 AM,21.2,17.6,86,29.97,10.0,South,13.8,24.2,N/A,,Mostly Cloudy,170,2013-01-18 09:53:00
4:13 AM,21.2,19.4,93,29.95,10.0,SSE,17.3,24.2,N/A,,Mostly Cloudy,160,2013-01-18 10:13:00
4:32 AM,21.2,19.4,93,29.94,10.0,SSE,11.5,20.7,N/A,,Scattered Clouds,160,2013-01-18 10:32:00
4:53 AM,21.2,19.4,93,29.91,10.0,SSE,15.0,19.6,N/A,,Scattered Clouds,160,2013-01-18 10:53:00
5:13 AM,23.0,19.4,86,29.90,10.0,South,13.8,-,N/A,,Mostly Cloudy,170,2013-01-18 11:13:00
5:32 AM,21.2,19.4,93,29.88,10.0,SSE,15.0,-,N/A,,Scattered Clouds,160,2013-01-18 11:32:00
5:53 AM,23.0,19.4,86,29.86,10.0,South,13.8,-,N/A,,Scattered Clouds,170,2013-01-18 11:53:00
6:13 AM,23.0,21.2,93,29.85,10.0,South,12.7,18.4,N/A,,Scattered Clouds,180,2013-01-18 12:13:00
6:32 AM,24.8,21.2,86,29.84,10.0,South,12.7,-,N/A,,Mostly Cloudy,180,2013-01-18 12:32:00
6:53 AM,24.8,21.2,86,29.83,10.0,South,10.4,-,N/A,,Mostly Cloudy,170,2013-01-18 12:53:00
7:12 AM,24.8,21.2,86,29.81,10.0,South,6.9,-,N/A,,Mostly Cloudy,180,2013-01-18 13:12:00
7:32 AM,24.8,21.2,86,29.80,10.0,South,6.9,-,N/A,,Scattered Clouds,170,2013-01-18 13:32:00
7:53 AM,24.8,21.2,86,29.79,10.0,South,5.8,-,N/A,,Scattered Clouds,170,2013-01-18 13:53:00
8:12 AM,24.8,21.2,86,29.78,10.0,South,6.9,-,N/A,,Clear,170,2013-01-18 14:12:00
8:32 AM,24.8,21.2,86,29.79,10.0,South,8.1,-,N/A,,Clear,190,2013-01-18 14:32:00
8:53 AM,24.8,21.2,86,29.78,10.0,South,6.9,-,N/A,,Clear,190,2013-01-18 14:53:00
9:12 AM,26.6,23.0,86,29.77,10.0,South,8.1,-,N/A,,Clear,190,2013-01-18 15:12:00
9:33 AM,26.6,23.0,86,29.77,10.0,SSW,5.8,-,N/A,,Clear,200,2013-01-18 15:33:00
9:53 AM,28.4,24.8,86,29.78,10.0,SW,6.9,-,N/A,,Clear,220,2013-01-18 15:53:00
10:12 AM,28.4,24.8,86,29.78,10.0,SSW,6.9,-,N/A,,Clear,210,2013-01-18 16:12:00
10:33 AM,30.2,24.8,80,29.78,10.0,SW,8.1,-,N/A,,Clear,220,2013-01-18 16:33:00
10:53 AM,33.8,26.6,75,29.77,10.0,WSW,5.8,-,N/A,,Clear,240,2013-01-18 16:53:00
11:12 AM,33.8,26.6,75,29.76,10.0,WSW,4.6,-,N/A,,Clear,250,2013-01-18 17:12:00
11:33 AM,33.8,26.6,75,29.75,10.0,West,5.8,-,N/A,,Clear,260,2013-01-18 17:33:00
11:53 AM,33.8,26.6,75,29.74,10.0,WSW,4.6,-,N/A,,Clear,240,2013-01-18 17:53:00
12:12 PM,35.6,26.6,70,29.74,10.0,West,6.9,-,N/A,,Clear,270,2013-01-18 18:12:00
12:33 PM,35.6,26.6,70,29.72,10.0,West,6.9,-,N/A,,Clear,280,2013-01-18 18:33:00
12:53 PM,35.6,28.4,75,29.73,10.0,WNW,8.1,-,N/A,,Clear,300,2013-01-18 18:53:00
1:12 PM,35.6,28.4,75,29.72,10.0,NW,6.9,-,N/A,,Clear,310,2013-01-18 19:12:00
1:33 PM,37.4,28.4,70,29.72,10.0,NW,6.9,-,N/A,,Clear,310,2013-01-18 19:33:00
1:53 PM,35.6,28.4,75,29.72,10.0,NW,5.8,-,N/A,,Clear,310,2013-01-18 19:53:00
2:12 PM,37.4,30.2,75,29.73,10.0,WNW,8.1,-,N/A,,Clear,300,2013-01-18 20:12:00
2:33 PM,37.4,28.4,70,29.74,10.0,NW,9.2,-,N/A,,Clear,310,2013-01-18 20:33:00
2:53 PM,37.4,28.4,70,29.75,10.0,NW,10.4,-,N/A,,Clear,320,2013-01-18 20:53:00
3:12 PM,37.4,30.2,75,29.74,10.0,NW,10.4,-,N/A,,Clear,320,2013-01-18 21:12:00
3:33 PM,35.6,30.2,81,29.75,10.0,NW,10.4,-,N/A,,Clear,320,2013-01-18 21:33:00
3:53 PM,35.6,30.2,81,29.75,10.0,NW,10.4,-,N/A,,Clear,310,2013-01-18 21:53:00
4:12 PM,35.6,30.2,81,29.76,10.0,NW,11.5,-,N/A,,Clear,320,2013-01-18 22:12:00
4:33 PM,35.6,28.4,75,29.76,10.0,NW,10.4,-,N/A,,Clear,320,2013-01-18 22:33:00
4:53 PM,33.8,28.4,81,29.76,10.0,NW,6.9,-,N/A,,Clear,320,2013-01-18 22:53:00
5:12 PM,30.2,28.4,93,29.77,10.0,Calm,Calm,-,N/A,,Clear,0,2013-01-18 23:12:00
5:33 PM,30.2,28.4,93,29.77,10.0,Calm,Calm,-,N/A,,Clear,0,2013-01-18 23:33:00
5:53 PM,28.4,26.6,93,29.78,10.0,WNW,5.8,-,N/A,,Clear,300,2013-01-18 23:53:00
6:12 PM,30.2,26.6,86,29.78,10.0,WNW,4.6,-,N/A,,Clear,290,2013-01-19 00:12:00
6:33 PM,28.4,26.6,93,29.78,10.0,West,5.8,-,N/A,,Clear,280,2013-01-19 00:33:00
6:53 PM,28.4,26.6,93,29.78,10.0,West,4.6,-,N/A,,Clear,280,2013-01-19 00:53:00
7:12 PM,26.6,24.8,93,29.78,10.0,West,4.6,-,N/A,,Clear,270,2013-01-19 01:12:00
7:33 PM,26.6,24.8,93,29.78,10.0,West,5.8,-,N/A,,Clear,270,2013-01-19 01:33:00
7:53 PM,24.8,23.0,93,29.78,10.0,WSW,6.9,-,N/A,,Clear,240,2013-01-19 01:53:00
8:12 PM,24.8,24.8,100,29.77,10.0,SW,5.8,-,N/A,,Clear,230,2013-01-19 02:12:00
8:33 PM,28.4,26.6,93,29.76,10.0,WSW,6.9,-,N/A,,Clear,250,2013-01-19 02:33:00
8:53 PM,28.4,26.6,93,29.77,10.0,West,8.1,-,N/A,,Clear,260,2013-01-19 02:53:00
9:13 PM,26.6,24.8,93,29.76,10.0,West,3.5,-,N/A,,Clear,280,2013-01-19 03:13:00
9:33 PM,24.8,23.0,93,29.77,10.0,NW,3.5,-,N/A,,Clear,310,2013-01-19 03:33:00
9:52 PM,24.8,23.0,93,29.76,10.0,Calm,Calm,-,N/A,,Clear,0,2013-01-19 03:52:00
10:13 PM,23.0,21.2,93,29.75,10.0,Calm,Calm,-,N/A,,Clear,0,2013-01-19 04:13:00
10:33 PM,24.8,23.0,93,29.75,10.0,Calm,Calm,-,N/A,,Clear,0,2013-01-19 04:33:00
10:52 PM,21.2,21.2,100,29.75,10.0,Calm,Calm,-,N/A,,Clear,0,2013-01-19 04:52:00
11:13 PM,23.0,21.2,93,29.74,10.0,South,3.5,-,N/A,,Clear,180,2013-01-19 05:13:00
11:33 PM,24.8,24.8,100,29.73,10.0,South,4.6,-,N/A,,Clear,170,2013-01-19 05:33:00
11:52 PM,26.6,26.6,100,29.73,10.0,South,3.5,-,N/A,,Clear,170,2013-01-19 05:52:00